Flag for Tunisia Weather past 2 weeks in Sfax, Tunisia

Now
97 °F

Passing clouds.


Feels Like: 99 °F
Forecast: 80 / 100 °F
Wind: 10 mph from Southeast

Location: Sfax El-Maou

Current Time: Aug 1, 2015 at 4:03:05 PM

Latest Report: Aug 1, 2015 at 3:00 PM


Visibility: N/A

Pressure: 29.89 "Hg

Humidity: 34%

Dew point: 64 °F

Location of SfaxLocation

Historic Weather in Sfax — Graph

°F

Sfax temperature yesterday

Maximum temperature yesterday: 102 °F (at 2:00 PM)
Minimum temperature yesterday: 77 °F (at 5:00 AM)
Average temperature yesterday: 91 °F

Past Weeks' High & Low Weather Summary

 TemperatureHumidityPressure
High106 °F (Aug 1, 2:00 PM)89% (Jul 18, 4:00 AM)30.04 "Hg (Jul 18, 4:00 AM)
Low73 °F (Jul 18, 4:00 AM)18% (Jul 31, 1:00 PM)29.80 "Hg (Jul 24, 4:00 PM)
Average86 °F56%29.90 "Hg
* Reported Jul 17 3:00 PM — Aug 1 3:00 PM, Sfax, Weather by CustomWeather, © 2015

Note: Actual official high and low records may vary slightly from our data, if they occured in-between our weather recording intervals... More about our weather records

Advertising

Sfax weather history for previous 24 hours

 ConditionsComfort  
Time TempWeatherWind HumidityBarometerVisibility
3:00 PM
Sat, Aug 1
97 °FPassing clouds.10 mph34%29.89 "HgN/A
2:00 PM106 °FPassing clouds.12 mph26%29.89 "HgN/A
1:00 PMN/APassing clouds.10 mphN/A29.89 "HgN/A
12:00 PMN/APassing clouds.10 mphN/A29.89 "HgN/A
11:00 AMN/APassing clouds.8 mphN/A29.89 "HgN/A
10:00 AM100 °FPassing clouds.3 mph25%29.89 "HgN/A
9:00 AM97 °FSunny.2 mph27%29.89 "Hg10 mi
8:00 AM93 °FSunny.2 mph32%29.89 "Hg10 mi
7:00 AM88 °FSunny.2 mph38%29.89 "Hg10 mi
6:00 AM82 °FClear.6 mph51%29.86 "Hg5 mi
5:00 AM81 °FClear.6 mph58%29.86 "Hg5 mi
4:00 AM82 °FClear.2 mph66%29.83 "Hg10 mi
3:00 AM84 °FClear.2 mph66%29.83 "Hg10 mi
1:00 AM86 °FClear.7 mph66%29.83 "Hg10 mi
12:00 AM88 °FClear.7 mph59%29.86 "Hg10 mi
11:00 PM
Fri, Jul 31
88 °FClear.5 mph43%29.86 "Hg10 mi
10:00 PM91 °FClear.1 mph38%29.86 "Hg10 mi
9:00 PM90 °FClear.3 mph59%29.83 "Hg10 mi
8:00 PM91 °FPassing clouds.3 mph46%29.83 "HgN/A
7:00 PM95 °FSunny.3 mph41%29.80 "Hg10 mi
5:00 PM93 °FSunny.10 mph56%29.80 "Hg10 mi
4:00 PM95 °FPassing clouds.12 mph44%29.80 "HgN/A
Weather by CustomWeather, © 2015

See weather overviewHow to use our weather pages